Powrót do katalogu

FREGAT R/B

AktywnyHEO
NORAD 43688·ROCKET BODY·🇷🇺 Russia

Wystrzelony Nov 3, 2018 z Plesetsk Cosmodrome

Loading…

Następne Przeloty (najbliższe 24 godziny)

TLE

ŚwieżeSource: Space-Track

Epoka: Sep 13, 2026, 12:12 UTC

1 43688U 18086B   26256.50881517  .00000016  00000-0  00000-0 0  9995
2 43688  64.2169 193.8094 0063434 130.5487 229.9986  2.08703164 59663

Śledź FREGAT R/B w czasie rzeczywistym z AllMySat

Download on the App Store